Dewpoint
7 7 8 6 6 5 4 4 3 1 -0 -0 1 2 0 -1 -1 -1 -1 -1 -2 -2 -0 -0 -0 -1 -1 -2 -2 -0 2 5 9 10 11 12 13 13 12 12 11 11 11 11
4 5 4 4 5 6 4 3 3 1 -1 -1 -0 -0 -2 -3 -3 -3 -3 -3 -3 -3 -2 -2 -1 -0 -0 -0 -1 -2 -0 3 6 10 10 9 11 12 12 11 11 11 11 11
4 1 1 2 3 2 2 3 3 3 0 -1 -0 0 -1 -3 -4 -4 -3 -4 -4 -3 -3 -3 -2 -2 -1 -1 -0 0 0 1 4 5 7 9 9 11 11 11 11 11 11 11
3 1 0 2 3 1 4 0 1 1 2 3 0 4 1 -2 -4 -5 -4 -4 -4 -4 -4 -4 -4 -4 -4 -3 -2 -1 -0 1 2 4 4 4 8 11 11 11 11 11 11 11
3 2 2 1 2 1 2 1 1 1 2 2 2 3 1 -1 -3 -5 -6 -6 -6 -6 -5 -6 -6 -6 -6 -6 -5 -4 -3 -1 -1 2 4 4 4 7 9 10 10 10 10 11
1 -1 0 1 -1 -0 -0 1 1 1 2 4 2 2 0 -2 -5 -6 -8 -7 -6 -6 -6 -6 -6 -6 -6 -5 -5 -5 -6 -3 -1 -2 2 4 4 5 8 9 9 9 10 10
2 2 -1 -0 2 -0 2 2 2 6 6 4 0 3 1 -3 -5 -7 -7 -7 -7 -7 -7 -7 -8 -7 -7 -6 -5 -5 -5 -5 -4 -0 -1 5 5 6 7 7 8 8 9 11
2 3 2 -0 1 2 2 2 2 5 5 3 -0 3 -1 -5 -6 -7 -7 -8 -8 -8 -8 -8 -7 -6 -5 -5 -4 -4 -3 -4 -4 -1 2 3 5 8 9 8 8 9 10 11
3 3 1 0 -0 1 2 4 1 3 1 -0 1 -3 -6 -6 -3 -5 -6 -6 -6 -8 -8 -7 -5 -4 -3 -3 -4 -3 -2 -2 -3 -2 5 5 7 9 8 8 9 11 11 10
3 4 2 2 -0 1 0 -0 2 0 0 3 2 -1 -2 -4 -3 -3 -3 -4 -4 -5 -6 -5 -3 -2 -2 -3 -5 -4 -1 -0 -1 5 7 7 9 9 8 9 10 8 10 9
1 2 3 2 2 3 2 4 2 2 2 3 5 2 -4 -3 -3 -3 -3 -2 -2 -2 -5 -4 -4 -4 -4 -5 -6 -1 -2 1 1 6 8 8 10 8 8 9 8 8 9 9
0 3 5 3 0 -0 1 1 1 1 1 2 1 3 -4 -4 -3 -3 -1 0 -0 -0 -3 -2 -1 -0 -1 -2 -2 1 1 2 4 6 7 9 10 9 9 9 8 9 8 7
1 4 1 3 1 0 2 1 1 1 3 1 3 2 -4 -4 -2 -1 2 3 2 1 0 -1 1 0 -2 0 3 5 5 5 6 7 8 7 8 9 9 8 8 7 7 5
-1 2 1 2 2 2 2 2 1 2 4 3 3 1 -1 -1 2 3 3 3 2 2 1 1 1 1 -2 1 6 6 5 6 7 8 7 8 7 7 7 7 5 4 3 1
1 2 2 2 2 2 2 3 3 3 3 5 2 3 3 3 4 4 3 3 3 4 3 2 1 2 1 4 7 6 6 7 8 8 7 7 6 5 4 3 0 -2 -1 -4
1 1 3 0 1 2 2 3 3 3 3 5 5 6 3 3 4 3 5 5 4 3 4 3 3 3 5 5 5 5 5 5 5 6 5 4 2 1 1 -3 -4 -4 -5 -2
3 3 0 2 2 4 5 4 3 3 4 5 8 5 5 5 5 4 3 3 3 5 4 3 3 3 4 4 4 2 1 1 2 1 -0 -2 -2 -4 -5 -4 -4 -2 -2 -4
3 3 2 2 3 5 4 2 3 4 5 4 5 5 4 5 4 3 -0 -0 1 5 4 2 2 1 -1 0 1 -0 -1 -2 -2 -3 -6 -7 -6 -3 -4 -3 -3 -2 -1 -1
2 3 5 5 4 2 3 3 3 4 4 5 5 4 4 4 5 3 -1 -2 -1 0 1 -1 -2 -3 -2 -2 -3 -2 -4 -5 -6 -7 -5 -5 -6 -4 -1 -0 -1 1 1 -1
3 3 5 6 5 6 4 1 2 2 5 2 4 5 4 3 5 3 0 -4 -4 -3 -2 -1 -1 -3 -5 -6 -6 -5 -7 -7 -6 -3 -2 -1 0 -0 -0 1 0 -6 -12 -10
5 6 6 5 6 4 0 0 3 6 4 2 3 5 2 3 3 1 -0 -3 -4 -5 -5 -5 -5 -5 -5 -7 -6 -6 -4 -1 -1 -1 0 0 0 0 -0 -2 -8 -5 -3 -13
5 6 7 6 6 5 -1 2 5 3 2 2 3 4 2 2 1 0 0 -0 -2 -3 -4 -4 -5 -2 -2 -1 -1 -1 -1 -1 0 -0 -0 -0 -2 -8 -8 -1 -4 -14 -16 -15
5 4 5 3 3 -1 1 2 2 1 1 1 2 5 4 2 -0 -2 -2 -1 -0 -0 -1 -0 -0 -1 -1 -1 -0 -0 -0 -0 -0 -1 -5 -8 -5 -1 -8 -15 -16 -17 -15 -14
3 2 4 5 3 3 2 1 1 0 0 0 2 5 4 3 1 -3 -4 -4 -3 -1 -0 -0 -0 -0 -1 -0 -0 -0 -1 -3 -5 -9 -5 -3 -8 -14 -16 -17 -16 -14 -18 -23
2 2 3 3 2 2 2 1 1 0 -0 -0 2 4 3 3 2 1 -2 -6 -6 -5 -5 -4 -5 -4 -4 -4 -5 -9 -9 -9 -4 -3 -9 -13 -16 -18 -17 -14 -16 -21 -22 -23
2 3 4 4 1 2 2 1 1 -0 -1 -0 1 1 1 0 -0 -2 -2 -3 -4 -4 -6 -8 -7 -7 -9 -9 -9 -9 -8 -7 -7 -9 -14 -17 -18 -15 -14 -21 -22 -23 -25 -28
Wind_Speed
5 3 5 8 7 5 5 4 4 5 6 3 8 10 10 18 23 24 27 31 37 37 34 26 26 25 35 38 37 39 35 34 40 40 35 32 34 35 33 31 29 29 28 25
3 3 5 7 10 9 6 4 5 7 4 5 12 20 17 18 22 28 34 30 37 40 42 39 35 31 29 28 35 37 39 38 36 40 36 34 36 37 35 32 32 30 31 32
5 1 8 4 3 4 2 2 3 5 7 5 9 10 8 8 21 30 34 36 34 40 39 36 36 35 35 33 30 35 32 26 39 41 40 40 39 38 37 35 34 35 34 33
3 4 3 4 3 3 1 4 2 3 4 3 6 7 6 9 9 6 21 28 34 37 39 37 34 34 35 35 37 31 35 36 27 40 41 43 44 43 42 40 40 39 38 38
7 4 6 3 3 5 3 5 5 4 4 5 3 3 8 7 5 8 6 19 26 25 25 24 26 25 21 28 34 32 36 36 36 34 40 44 47 44 44 43 41 42 40 40
4 4 3 3 3 3 6 5 4 3 3 3 8 7 5 3 4 1 1 9 6 18 12 7 6 12 12 14 19 28 31 29 42 37 38 47 47 47 45 46 43 42 43 39
3 3 2 3 4 4 5 5 3 0 2 6 2 4 7 9 11 9 8 14 7 4 5 6 10 11 9 9 10 17 25 27 30 40 45 44 45 47 45 45 45 43 44 40
4 4 8 4 4 5 4 5 4 4 3 4 5 7 6 11 17 15 10 4 5 10 14 9 10 9 9 13 14 16 20 27 27 33 44 42 45 46 45 42 44 44 42 38
4 2 6 6 2 5 3 3 5 1 2 3 5 7 9 7 8 9 9 13 18 16 12 10 9 10 9 10 14 21 22 25 25 30 38 44 44 41 39 38 40 40 37 35
1 4 5 5 3 4 5 5 2 2 2 5 6 5 8 4 5 7 9 15 23 18 7 9 8 7 9 14 18 20 22 24 25 30 36 41 40 37 35 36 34 32 34 34
2 3 2 3 5 7 3 3 3 2 4 4 4 5 5 6 1 4 4 11 19 27 21 9 8 10 12 16 17 19 18 23 26 31 36 36 33 31 32 31 28 30 35 37
3 3 3 7 5 8 5 5 5 4 4 4 3 6 9 12 6 18 24 32 25 23 21 13 7 9 12 19 18 15 17 25 29 30 32 31 30 30 32 28 28 33 36 34
6 2 1 2 5 2 5 7 8 5 2 7 2 7 4 10 20 26 28 31 29 29 27 8 9 10 18 19 14 11 21 25 27 28 28 29 29 31 28 27 30 34 35 33
11 4 5 5 3 3 3 6 9 11 3 8 14 21 24 20 20 23 23 22 20 26 24 23 17 17 19 15 13 16 21 25 27 30 30 29 30 28 28 29 32 32 31 30
4 3 3 4 6 4 6 7 9 11 18 9 24 22 22 21 20 20 9 17 18 22 23 22 22 13 8 10 13 16 23 28 31 30 27 28 27 26 27 30 32 32 29 26
2 1 2 5 8 8 6 11 12 12 16 17 23 26 15 17 27 15 12 16 19 25 21 8 6 5 8 13 17 22 25 26 26 26 24 24 25 29 32 34 32 28 24 22
5 3 2 4 4 6 5 7 12 7 5 6 7 10 14 17 12 12 15 18 19 17 9 7 6 9 14 18 20 20 20 20 20 21 22 26 29 33 35 31 27 24 22 18
4 5 3 3 4 1 5 4 6 10 8 7 7 12 11 15 9 15 16 15 18 5 4 11 11 14 18 20 20 18 17 18 20 24 28 31 32 30 28 27 25 21 16 12
5 4 1 2 2 6 1 2 2 3 4 2 5 9 12 14 6 7 14 12 10 11 13 13 14 15 16 16 18 17 18 21 25 28 27 27 28 27 25 24 21 16 11 9
5 2 1 2 1 3 3 4 3 4 3 2 4 6 8 10 3 2 9 8 9 11 11 11 11 12 13 17 20 21 24 22 23 23 26 24 24 23 21 17 16 14 10 7
3 2 6 6 4 6 8 6 8 1 4 2 3 2 5 2 2 3 5 9 10 9 10 12 13 15 16 14 13 19 20 22 24 26 27 23 18 16 14 14 14 10 6 6
7 6 3 4 3 7 5 5 1 3 4 3 2 5 9 9 9 10 13 12 10 12 14 13 17 18 18 20 22 30 31 30 27 23 21 20 17 19 15 8 7 8 4 2
4 6 5 7 6 7 5 4 3 5 4 2 4 8 10 12 12 12 14 15 18 15 16 19 20 21 23 26 25 27 26 23 21 20 20 18 15 11 10 8 6 3 2 3
3 8 3 3 5 9 4 1 2 4 2 1 6 11 11 14 16 16 15 16 19 20 21 22 22 23 23 23 22 22 24 23 21 20 17 13 12 12 9 5 3 1 1 3
5 4 4 4 6 3 2 1 3 3 1 3 7 11 12 12 16 18 20 20 18 18 20 20 22 24 24 24 25 23 21 20 18 16 16 14 11 8 5 3 1 1 4 8
5 6 4 4 4 2 2 3 3 3 1 4 9 12 11 12 17 20 22 24 23 22 21 21 22 23 24 24 23 22 19 17 16 15 13 11 8 6 4 3 4 7 10 11
Wind_Direction
180 116 193 194 189 239 269 303 279 274 296 280 249 261 255 261 260 263 265 261 259 255 250 244 243 246 242 240 242 242 240 233 224 217 215 216 212 210 215 220 221 223 224 221
99 216 204 199 210 229 267 267 293 294 341 5 313 295 283 260 256 244 250 249 251 254 254 254 254 252 251 245 238 239 239 239 224 216 218 224 222 213 215 218 218 226 232 226
141 225 211 211 284 198 348 306 288 270 334 350 349 293 266 278 249 247 247 248 248 251 252 252 251 250 251 252 247 242 238 238 226 220 217 221 222 222 220 217 220 222 228 235
202 228 115 148 223 139 101 6 72 30 45 260 69 292 291 275 279 252 241 241 242 245 247 250 252 253 252 255 251 249 249 244 236 231 228 227 219 216 221 218 217 220 226 231
228 161 166 161 183 139 168 94 66 38 26 6 277 221 279 259 274 267 278 250 243 245 241 243 246 246 254 253 244 245 246 248 245 239 231 226 223 221 222 220 223 224 228 228
124 67 105 198 108 84 124 65 45 61 75 295 228 182 281 240 210 122 280 33 243 243 229 221 225 237 236 245 247 247 250 249 241 243 241 228 222 221 219 222 227 227 229 225
45 143 135 54 116 93 89 78 9 248 223 235 103 211 250 275 284 267 285 284 213 205 178 296 263 235 248 264 263 268 261 255 247 237 239 231 227 223 225 225 229 229 224 219
140 314 165 181 159 168 161 140 158 221 228 283 295 226 254 234 263 298 254 286 268 229 251 266 253 258 251 256 267 266 261 259 253 237 237 234 226 222 223 228 234 227 224 220
126 276 140 147 125 114 190 187 170 322 315 43 252 294 307 335 41 48 46 17 359 353 300 254 211 234 264 278 275 273 258 257 256 240 229 224 219 220 226 235 231 228 222 216
341 111 146 146 121 209 146 158 85 8 298 278 282 266 240 351 348 15 12 5 353 344 283 204 244 270 300 292 284 288 254 244 245 229 220 221 215 217 227 232 228 224 218 210
123 72 35 96 194 184 176 182 212 106 175 216 290 263 241 195 109 30 329 317 316 317 285 286 282 294 304 308 297 278 253 236 230 219 219 221 212 220 229 227 220 213 208 206
125 109 170 217 224 187 173 190 189 142 255 245 192 261 276 279 37 333 322 318 301 291 282 316 301 307 313 315 302 268 250 224 222 218 219 216 214 223 220 212 209 204 202 199
146 145 63 147 12 106 195 212 202 230 28 232 238 265 228 319 325 316 306 301 292 280 277 289 297 306 313 320 288 267 225 210 217 213 209 215 214 213 206 206 200 198 197 193
146 153 174 183 168 128 204 210 198 192 202 267 240 275 286 293 304 303 311 331 327 301 291 286 280 285 282 300 272 231 224 218 212 205 203 204 209 200 198 195 192 189 187 187
100 178 273 275 260 235 216 230 227 217 241 242 277 277 286 297 299 295 285 318 300 315 324 298 290 281 251 241 239 213 197 187 184 183 189 194 191 190 186 184 181 180 179 173
93 229 37 281 257 235 246 243 235 241 253 248 263 275 285 299 305 318 336 315 284 284 311 291 199 194 194 200 193 179 173 170 173 176 179 182 181 179 177 174 172 166 161 163
155 157 91 271 327 338 284 236 214 223 209 205 273 289 305 307 320 15 355 339 311 287 296 212 186 193 179 170 176 164 159 160 164 166 165 167 169 169 167 164 160 155 153 151
152 171 172 260 358 307 241 244 200 214 236 210 274 282 313 309 104 32 15 3 14 343 150 158 158 153 148 151 155 154 154 154 159 161 160 162 167 157 152 149 142 144 155 155
148 173 189 282 252 278 336 147 240 228 281 204 269 294 312 330 168 42 12 22 52 105 132 135 137 138 143 147 151 159 154 159 159 153 157 150 150 147 145 144 146 152 157 150
144 138 129 352 305 261 201 277 242 120 277 244 232 306 331 355 333 17 359 52 69 84 106 133 143 142 146 143 155 158 145 148 147 152 146 148 143 137 144 149 143 129 134 150
182 197 222 232 260 283 252 285 154 24 257 344 226 334 4 86 88 72 69 85 92 108 119 131 140 146 148 151 157 142 143 140 140 143 137 133 140 143 141 127 116 143 152 184
176 169 192 182 210 264 245 304 258 234 262 311 189 143 113 122 129 108 86 82 104 109 119 125 134 132 133 135 140 137 139 140 136 133 139 142 133 117 123 144 129 151 163 205
183 187 180 196 210 242 320 258 238 295 288 238 166 172 153 150 145 126 121 115 98 107 126 116 117 121 125 128 133 133 135 133 135 132 131 132 142 133 126 143 148 161 223 300
236 197 216 122 253 249 213 112 339 337 344 228 173 182 172 156 157 149 139 132 128 127 126 128 128 128 133 141 141 133 134 140 135 135 140 139 134 141 145 152 159 199 312 313
225 149 208 263 290 115 172 4 336 331 50 147 176 188 191 166 155 155 155 154 146 140 138 140 135 135 138 145 147 145 138 136 146 149 144 142 142 142 144 144 112 9 338 339
205 205 175 229 242 193 226 273 290 275 169 151 177 172 177 180 163 156 148 153 158 157 158 156 150 145 143 145 139 140 146 154 150 142 140 139 141 137 116 73 22 354 343 340
Height
1472 1477 1479 1479 1479 1479 1481 1483 1485 1480 1474 1473 1471 1468 1465 1460 1458 1456 1453 1453 1452 1452 1454 1456 1459 1461 1463 1466 1468 1472 1474 1474 1476 1479 1483 1485 1488 1492 1495 1497 1501 1503 1505 1507
1473 1476 1474 1475 1477 1479 1482 1483 1484 1476 1470 1473 1470 1459 1455 1452 1445 1447 1443 1444 1443 1445 1448 1450 1453 1455 1456 1459 1462 1465 1467 1469 1470 1473 1476 1479 1483 1486 1490 1493 1496 1499 1500 1502
1475 1472 1471 1475 1477 1478 1481 1483 1484 1485 1476 1472 1471 1458 1449 1438 1432 1433 1434 1434 1436 1437 1440 1442 1444 1447 1450 1452 1455 1458 1461 1464 1466 1466 1469 1470 1476 1482 1485 1488 1490 1493 1495 1498
1471 1470 1470 1474 1477 1478 1484 1481 1481 1482 1487 1493 1483 1487 1457 1439 1433 1429 1425 1426 1427 1429 1432 1435 1437 1439 1442 1444 1448 1450 1453 1456 1459 1462 1462 1462 1465 1470 1475 1479 1482 1485 1490 1492
1474 1469 1472 1476 1475 1476 1482 1480 1483 1485 1491 1495 1488 1494 1459 1443 1433 1427 1424 1423 1423 1424 1426 1429 1431 1433 1435 1437 1440 1443 1446 1448 1451 1453 1455 1457 1459 1463 1468 1474 1477 1480 1483 1485
1468 1469 1472 1474 1473 1475 1479 1482 1485 1488 1497 1508 1482 1483 1462 1442 1429 1424 1422 1421 1422 1423 1425 1425 1427 1429 1430 1432 1433 1436 1438 1439 1443 1445 1446 1448 1451 1456 1460 1466 1471 1474 1476 1479
1471 1472 1472 1473 1476 1477 1480 1489 1519 1493 1498 1503 1473 1479 1456 1433 1424 1423 1421 1419 1419 1420 1422 1424 1425 1426 1427 1428 1429 1431 1432 1433 1436 1438 1438 1441 1446 1449 1454 1461 1465 1468 1470 1473
1485 1492 1473 1473 1475 1479 1482 1488 1510 1497 1496 1491 1472 1470 1442 1423 1420 1421 1419 1420 1420 1419 1419 1421 1422 1421 1421 1422 1424 1426 1427 1426 1428 1429 1431 1435 1439 1444 1450 1456 1461 1463 1465 1469
1476 1475 1467 1470 1472 1477 1484 1490 1489 1492 1498 1521 1480 1453 1432 1420 1422 1423 1424 1422 1421 1419 1418 1418 1417 1417 1418 1419 1421 1421 1420 1420 1421 1422 1424 1427 1432 1440 1447 1451 1455 1459 1463 1467
1462 1472 1469 1470 1472 1475 1480 1482 1502 1513 1527 1501 1474 1459 1440 1426 1424 1423 1422 1422 1422 1421 1417 1414 1414 1413 1414 1415 1414 1413 1414 1413 1415 1416 1419 1422 1427 1436 1442 1446 1449 1454 1460 1464
1460 1468 1477 1471 1476 1478 1481 1481 1482 1489 1497 1503 1483 1458 1429 1426 1424 1424 1425 1425 1423 1423 1420 1415 1411 1410 1410 1410 1410 1408 1407 1409 1410 1411 1415 1421 1426 1433 1437 1441 1445 1450 1456 1459
1461 1471 1475 1478 1471 1471 1475 1478 1481 1507 1493 1489 1492 1451 1424 1422 1424 1424 1421 1418 1414 1415 1415 1411 1408 1407 1407 1406 1404 1402 1403 1404 1404 1409 1414 1418 1423 1428 1432 1437 1442 1446 1451 1456
1461 1472 1499 1471 1477 1473 1477 1474 1475 1478 1481 1489 1487 1446 1423 1421 1421 1422 1420 1417 1412 1408 1407 1406 1406 1404 1403 1403 1400 1398 1399 1399 1404 1406 1411 1417 1422 1426 1431 1435 1440 1444 1449 1453
1459 1467 1476 1480 1473 1469 1477 1468 1470 1475 1482 1463 1455 1438 1426 1425 1420 1418 1416 1411 1404 1400 1399 1401 1400 1400 1400 1397 1398 1396 1398 1398 1401 1405 1409 1414 1420 1425 1429 1434 1439 1444 1448 1453
1462 1472 1466 1466 1464 1464 1467 1466 1465 1468 1460 1466 1435 1434 1424 1421 1417 1413 1411 1408 1405 1401 1397 1394 1394 1395 1393 1396 1398 1396 1397 1397 1399 1404 1408 1415 1420 1425 1430 1434 1439 1445 1449 1454
1463 1475 1475 1479 1459 1461 1464 1457 1455 1455 1451 1450 1443 1430 1421 1416 1413 1409 1407 1403 1400 1399 1399 1394 1394 1395 1394 1395 1397 1398 1397 1399 1402 1406 1410 1415 1421 1425 1429 1435 1442 1447 1453 1457
1462 1468 1484 1477 1455 1457 1457 1443 1443 1439 1435 1434 1432 1421 1415 1412 1409 1411 1408 1404 1399 1396 1397 1397 1396 1397 1398 1397 1398 1399 1400 1402 1406 1409 1413 1418 1422 1426 1431 1437 1444 1448 1454 1459
1461 1465 1473 1474 1462 1463 1432 1425 1425 1429 1425 1425 1423 1418 1416 1413 1413 1411 1408 1404 1396 1393 1395 1397 1398 1398 1400 1400 1401 1403 1405 1408 1410 1413 1416 1420 1426 1431 1438 1443 1447 1452 1457 1461
1457 1464 1463 1465 1465 1445 1425 1424 1425 1426 1425 1420 1421 1416 1415 1413 1411 1412 1411 1407 1402 1397 1396 1398 1401 1402 1403 1405 1406 1407 1409 1411 1414 1417 1421 1426 1435 1439 1443 1443 1447 1452 1456 1460
1456 1458 1462 1461 1467 1449 1427 1422 1420 1422 1427 1418 1419 1418 1417 1413 1411 1413 1412 1410 1406 1405 1403 1401 1401 1404 1406 1408 1409 1409 1413 1417 1421 1426 1426 1435 1439 1442 1445 1449 1452 1454 1460 1463
1458 1458 1457 1460 1456 1445 1426 1419 1420 1425 1426 1417 1417 1417 1416 1416 1417 1416 1414 1411 1409 1407 1406 1406 1406 1405 1407 1411 1414 1417 1421 1424 1428 1429 1436 1437 1443 1447 1447 1452 1454 1456 1460 1464
1449 1450 1450 1453 1455 1451 1419 1419 1422 1418 1414 1415 1415 1416 1417 1418 1417 1417 1416 1415 1413 1411 1411 1411 1411 1410 1410 1412 1416 1419 1424 1429 1433 1436 1442 1446 1449 1448 1452 1456 1458 1461 1462 1463
1439 1435 1439 1441 1435 1420 1419 1417 1415 1414 1413 1413 1413 1414 1415 1416 1418 1418 1417 1417 1417 1416 1416 1417 1417 1417 1419 1420 1425 1427 1431 1435 1437 1441 1446 1450 1453 1454 1457 1460 1461 1462 1462 1461
1427 1425 1427 1430 1417 1417 1418 1415 1414 1412 1411 1412 1411 1412 1414 1414 1417 1418 1419 1420 1420 1420 1421 1423 1425 1426 1428 1432 1435 1438 1439 1443 1446 1449 1452 1454 1455 1458 1460 1460 1460 1460 1460 1459
1425 1422 1422 1422 1416 1415 1415 1414 1413 1412 1411 1410 1411 1412 1413 1414 1416 1418 1419 1422 1423 1425 1427 1428 1429 1431 1434 1437 1440 1443 1445 1448 1451 1453 1455 1457 1458 1459 1459 1460 1460 1459 1457 1455
1419 1419 1421 1420 1413 1413 1413 1413 1412 1412 1410 1409 1410 1412 1414 1415 1416 1418 1420 1422 1424 1427 1429 1432 1434 1436 1438 1442 1445 1448 1450 1453 1454 1455 1457 1458 1459 1460 1460 1459 1458 1456 1454 1452